Flag for United Kingdom Weather past 2 weeks in Peterborough, England, United Kingdom

Now
59 °F

Fog.


Feels Like: 60 °F
Forecast: 53 / 73 °F
Wind: 3 mph from Southeast

Location: Wittering

Current Time: Aug 2, 2014 at 6:06:25 AM

Latest Report: Aug 2, 2014 at 4:50 AM


Visibility: 5 mi

Pressure: 29.65 "Hg

Humidity: 94%

Dew point: 57 °F

Location of PeterboroughLocation

Historic Weather in Peterborough — Graph

°F

Peterborough temperature yesterday

Maximum temperature yesterday: 75 °F (at 2:50 PM)
Minimum temperature yesterday: 55 °F (at 4:50 AM)
Average temperature yesterday: 65 °F

Past Weeks' High & Low Weather Summary

 TemperatureHumidityPressure
High86 °F (Jul 18, 2:50 PM)100% (Jul 20, 9:50 PM)30.24 "Hg (Jul 20, 9:50 PM)
Low54 °F (Jul 29, 5:50 AM)37% (Jul 26, 3:50 PM)29.65 "Hg (Aug 2, 3:50 AM)
Average67 °F75%29.98 "Hg
* Reported Jul 18 4:50 AM — Aug 2 4:50 AM, Peterborough, Weather by CustomWeather, © 2014

Note: Actual official high and low records may vary slightly from our data, if they occured in-between our weather recording intervals... More about our weather records

Advertising

Peterborough weather history for previous 24 hours

 ConditionsComfort  
Time TempWeatherWind HumidityBarometerVisibility
4:50 AM
Aug 2
59 °FFog.3 mph94%29.65 "Hg5 mi
3:50 AM59 °FFog.2 mph94%29.65 "Hg5 mi
2:50 AM59 °FFog.5 mph94%29.68 "Hg6 mi
1:50 AM61 °FPassing clouds.1 mph88%29.68 "HgN/A
12:50 AM61 °FPassing clouds.3 mph94%29.71 "HgN/A
11:50 PM
Aug 1
63 °FOvercast.2 mph88%29.71 "HgN/A
10:50 PM63 °FOvercast.2 mph88%29.71 "HgN/A
9:50 PM63 °FOvercast.7 mph83%29.71 "HgN/A
8:50 PM64 °FPartly sunny.8 mph83%29.71 "HgN/A
7:50 PM66 °FPartly sunny.10 mph73%29.68 "HgN/A
6:50 PM70 °FPartly sunny.16 mph60%29.68 "HgN/A
5:50 PM72 °FPartly sunny.14 mph57%29.68 "HgN/A
4:50 PM73 °FBroken clouds.15 mph57%29.68 "HgN/A
3:50 PM75 °FPartly sunny.13 mph47%29.71 "HgN/A
2:50 PM75 °FScattered clouds.13 mph47%29.71 "HgN/A
1:50 PM73 °FPartly sunny.15 mph50%29.71 "HgN/A
12:50 PM72 °FPartly sunny.14 mph53%29.74 "HgN/A
11:50 AM70 °FPassing clouds.13 mph64%29.74 "HgN/A
10:50 AM68 °FScattered clouds.12 mph73%29.77 "HgN/A
9:50 AM63 °FScattered clouds.8 mph88%29.80 "Hg5 mi
8:50 AM63 °FHaze.8 mph88%29.77 "Hg5 mi
7:50 AM61 °FFog.8 mph94%29.80 "Hg4 mi
6:50 AM57 °FFog.6 mph100%29.80 "Hg4 mi
Weather by CustomWeather, © 2014

See weather overviewHow to use our weather pages